GW1368 Weather Reports


time (UTC)temp
F
wind
direction
speed
knots
gust
knots
rain 1hr
in
rain 24hr
in
rain mn
in
humidity
%
barometer
mb
20260505070454 58 0 0.9 3.5 0.02 0.16 0.02 52 1009.0
20260505065954 58 35 1.7 3.5 0.00 0.15 0.00 45 1008.3
20260505065453 59 118 1.7 2.6 0.00 0.15 0.00 46 1007.9
20260505064954 59 339 1.7 5.2 0.00 0.15 0.00 44 1007.5
20260505064441 59 354 1.7 5.2 0.00 0.15 0.00 44 1006.9
20260505063939 59 349 1.7 5.2 0.00 0.15 0.00 44 1006.8
20260505063423 59 1 1.7 4.3 0.00 0.15 0.00 45 1006.7
20260505061923 60 30 3.5 7.8 0.00 0.15 0.00 44 1006.8
20260505061424 60 19 4.3 7.8 0.00 0.15 0.00 44 1006.6
20260505060924 61 23 4.3 7.8 0.00 0.15 0.00 43 1006.5
20260505060424 61 34 4.3 8.7 0.00 0.15 0.00 43 1006.3
20260505055924 62 26 4.3 10.4 0.00 0.15 0.00 43 1006.1
20260505055422 62 8 4.3 10.4 0.00 0.15 0.00 42 1005.8
20260505054922 63 38 4.3 8.7 0.00 0.15 0.00 42 1005.7
20260505054422 64 302 3.5 8.7 0.00 0.15 0.00 42 1005.6
20260505053420 65 322 2.6 7.8 0.00 0.15 0.00 42 1005.9
20260505052918 65 29 2.6 7.0 0.00 0.15 0.00 43 1005.8
20260505052419 65 6 2.6 7.0 0.03 0.15 0.00 44 1005.5
20260505050919 65 16 1.7 7.8 0.15 0.15 0.00 46 1004.8
20260505050419 65 22 1.7 7.8 0.15 0.15 0.00 47 1005.1
20260505041414 70 359 0.9 3.5 0.00 0.00 0.00 47 1004.5
20260505040915 70 54 0.9 2.6 0.00 0.00 0.00 46 1004.5
20260505040414 70 0 0.9 4.3 0.00 0.00 0.00 47 1004.4
20260505035913 71 247 0.9 4.3 0.00 0.00 0.00 49 1004.4
20260505035414 70 0 1.7 6.1 0.00 0.00 0.00 52 1004.3
20260505034914 70 0 1.7 6.1 0.00 0.00 0.00 53 1004.1
20260505034414 69 29 0.9 2.6 0.00 0.00 0.00 59 1004.0
20260505033914 69 0 0.0 1.7 0.00 0.00 0.00 62 1004.0
20260505033415 70 358 0.0 2.6 0.00 0.00 0.00 62 1003.8
20260505032915 70 0 0.0 2.6 0.00 0.00 0.00 62 1003.8
20260505032414 71 0 0.9 2.6 0.00 0.00 0.00 62 1003.7
20260505031409 71 207 0.9 3.5 0.00 0.00 0.00 60 1003.0
20260505030908 71 0 0.9 3.5 0.00 0.00 0.00 60 1002.9
20260505030408 72 208 0.9 2.6 0.00 0.00 0.00 58 1003.0
20260505025908 72 0 0.0 2.6 0.00 0.00 0.00 58 1002.9
20260505025408 72 206 0.0 2.6 0.00 0.00 0.00 57 1002.9
20260505024410 72 202 0.9 4.3 0.00 0.00 0.00 56 1002.8
20260505023409 72 198 0.0 3.5 0.00 0.00 0.00 56 1002.7
20260505022909 72 0 0.0 3.5 0.00 0.00 0.00 56 1002.7
20260505021909 72 0 0.0 2.6 0.00 0.00 0.00 55 1002.6
20260505020410 72 0 0.0 2.6 0.00 0.00 0.00 55 1002.3
20260505014407 73 0 0.0 2.6 0.00 0.00 0.00 53 1002.1
20260505013907 73 0 0.0 2.6 0.00 0.00 0.00 53 1002.0
20260505013407 73 214 0.0 1.7 0.00 0.00 0.00 52 1002.0
20260505012409 73 0 0.0 2.6 0.00 0.00 0.00 52 1001.8
20260505011908 74 0 0.0 2.6 0.00 0.00 0.00 52 1001.8
20260505011409 74 203 0.0 2.6 0.00 0.00 0.00 52 1001.7
20260505010909 74 211 0.0 2.6 0.00 0.00 0.00 52 1001.7
20260505005909 75 0 0.0 2.6 0.00 0.00 0.00 51 1001.6
20260505005407 75 0 0.0 1.7 0.00 0.00 0.00 51 1001.6
20260505004908 76 0 0.0 2.6 0.00 0.00 0.00 52 1001.4
20260505003905 76 204 0.9 3.5 0.00 0.00 0.00 51 1001.4
20260505003405 76 0 0.9 3.5 0.00 0.00 0.00 50 1001.3
20260505002905 77 221 0.9 3.5 0.00 0.00 0.00 51 1001.3
20260505002405 77 0 0.0 3.5 0.00 0.00 0.00 50 1001.3
20260505001407 78 174 0.9 3.5 0.00 0.00 0.00 50 1001.3
20260505000905 78 0 0.9 3.5 0.00 0.00 0.00 48 1001.3
20260505000406 78 179 0.9 3.5 0.00 0.00 0.00 49 1001.3
20260504235905 78 0 0.9 2.6 0.00 0.00 0.00 48 1001.3
20260504235406 78 199 0.0 2.6 0.00 0.00 0.00 49 1001.4
20260504234407 79 208 0.0 2.6 0.00 0.00 0.00 47 1001.3
20260504233902 79 221 0.0 2.6 0.00 0.00 0.00 47 1001.3
20260504233400 79 201 0.9 2.6 0.00 0.00 0.00 46 1001.3
20260504232900 79 199 0.9 3.5 0.00 0.00 0.00 46 1001.3
20260504231900 80 191 0.9 5.2 0.00 0.00 0.00 44 1001.3
20260504230401 80 228 0.9 4.3 0.00 0.00 0.00 46 1001.4
20260504225359 80 250 1.7 6.1 0.00 0.00 0.00 47 1001.4
20260504224858 81 0 0.9 3.5 0.00 0.00 0.00 45 1001.3
20260504223858 81 258 1.7 4.3 0.00 0.00 0.00 45 1001.3
20260504223358 82 0 1.7 7.8 0.00 0.00 0.00 44 1001.3
20260504222855 82 289 2.6 7.8 0.00 0.00 0.00 43 1001.3
20260504222356 82 219 2.6 7.8 0.00 0.00 0.00 42 1001.3
20260504221855 82 231 1.7 6.1 0.00 0.00 0.00 40 1001.4
20260504220855 82 0 1.7 7.0 0.00 0.00 0.00 40 1001.4
20260504220354 82 303 2.6 6.1 0.00 0.00 0.00 41 1001.4
20260504215855 82 216 1.7 6.1 0.00 0.00 0.00 40 1001.6
20260504215355 83 263 0.9 6.1 0.00 0.00 0.00 40 1001.7
20260504214856 83 164 0.9 4.3 0.00 0.00 0.00 41 1001.7
20260504214355 83 0 0.9 4.3 0.00 0.00 0.00 40 1001.8
20260504213855 84 225 0.9 4.3 0.00 0.00 0.00 41 1001.8
20260504213356 84 0 0.9 4.3 0.00 0.00 0.00 40 1001.8
20260504212852 84 220 0.9 4.3 0.00 0.00 0.00 39 1001.8
20260504212353 85 0 0.9 4.3 0.00 0.00 0.00 40 1001.7
20260504211852 85 139 0.9 5.2 0.00 0.00 0.00 36 1001.7
20260504210346 86 275 0.9 4.3 0.00 0.00 0.00 35 1001.7
20260504205847 86 327 0.9 3.5 0.00 0.00 0.00 35 1001.8
20260504205348 87 162 0.9 3.5 0.00 0.00 0.00 35 1001.9
20260504204847 86 0 0.9 5.2 0.00 0.00 0.00 35 1001.9
20260504204348 86 223 1.7 6.1 0.00 0.00 0.00 37 1002.0
20260504203848 86 115 1.7 6.1 0.00 0.00 0.00 38 1002.1
20260504202347 86 28 0.9 7.0 0.00 0.00 0.00 38 1002.2
20260504201844 85 171 0.9 7.0 0.00 0.00 0.00 37 1002.3
20260504201342 85 85 1.7 5.2 0.00 0.00 0.00 38 1002.2
20260504200841 84 300 1.7 5.2 0.00 0.00 0.00 40 1002.2
20260504200342 84 196 1.7 5.2 0.00 0.00 0.00 42 1002.3
20260504195843 85 204 1.7 6.1 0.00 0.00 0.00 42 1002.4
20260504195339 85 215 1.7 6.1 0.00 0.00 0.00 38 1002.4
20260504194839 85 218 1.7 6.1 0.00 0.00 0.00 39 1002.3
20260504194340 85 215 0.9 5.2 0.00 0.00 0.00 39 1002.4
20260504193839 85 254 1.7 6.1 0.00 0.00 0.00 37 1002.4
20260504193340 85 0 1.7 6.1 0.00 0.00 0.00 41 1002.3
20260504192839 85 192 0.9 5.2 0.00 0.00 0.00 41 1002.2
20260504192341 84 309 1.7 6.1 0.00 0.00 0.00 42 1002.3
20260504191837 84 339 1.7 6.1 0.00 0.00 0.00 43 1002.3
20260504191335 83 322 1.7 5.2 0.00 0.00 0.00 40 1002.4
20260504190330 83 234 2.6 7.0 0.00 0.00 0.00 44 1002.4
20260504185828 83 346 1.7 6.1 0.00 0.00 0.00 45 1002.5
20260504185328 83 160 1.7 5.2 0.00 0.00 0.00 45 1002.5
20260504184829 83 42 0.9 5.2 0.00 0.00 0.00 43 1002.5
20260504184328 82 0 1.7 5.2 0.00 0.00 0.00 44 1002.5
20260504183825 82 292 1.7 7.0 0.00 0.00 0.00 43 1002.5
20260504183325 81 219 1.7 7.0 0.00 0.00 0.00 45 1002.6
20260504182825 81 0 1.7 6.1 0.00 0.00 0.00 45 1002.5
20260504182325 81 272 2.6 6.1 0.00 0.00 0.00 42 1002.7
20260504181826 82 205 1.7 6.1 0.00 0.00 0.00 44 1002.7
20260504181325 82 218 1.7 6.1 0.00 0.00 0.00 45 1002.6
20260504180826 82 215 1.7 5.2 0.00 0.00 0.00 45 1002.6
20260504180326 81 243 1.7 5.2 0.00 0.00 0.00 45 1002.8
20260504175825 81 202 1.7 5.2 0.00 0.00 0.00 46 1002.8
20260504175326 81 200 1.7 5.2 0.00 0.00 0.00 47 1002.8
20260504174825 80 0 1.7 5.2 0.00 0.00 0.00 44 1002.9
20260504174322 80 161 1.7 5.2 0.00 0.00 0.00 47 1002.9
20260504173324 79 0 1.7 6.1 0.00 0.00 0.00 46 1003.0
20260504172821 79 182 1.7 6.1 0.00 0.00 0.00 45 1003.0
20260504172321 79 183 1.7 6.1 0.00 0.00 0.00 45 1003.1
20260504171819 78 275 1.7 5.2 0.00 0.00 0.00 47 1003.1
20260504170820 78 254 1.7 6.1 0.00 0.00 0.00 48 1003.2
20260504170321 78 180 0.9 5.2 0.00 0.00 0.00 46 1003.2
20260504160312 74 139 2.6 7.0 0.00 0.00 0.00 50 1003.4
20260504150807 72 204 1.7 7.0 0.00 0.00 0.00 51 1003.4
20260504150308 71 213 1.7 7.0 0.00 0.00 0.00 52 1003.4
20260504141256 68 276 2.6 7.0 0.00 0.00 0.00 56 1003.5
20260504140752 67 255 1.7 3.5 0.00 0.00 0.00 57 1003.6
20260504140238 67 228 1.7 3.5 0.00 0.00 0.00 58 1003.6
20260504130707 63 221 1.7 5.2 0.00 0.00 0.00 59 1003.4
20260504120108 61 230 1.7 3.5 0.00 0.00 0.00 61 1003.5
20260504110555 58 0 0.0 2.6 0.00 0.00 0.00 66 1003.5
20260504100525 56 0 0.0 0.0 0.00 0.00 0.00 74 1004.4
20260504080942 61 0 0.0 2.6 0.00 0.00 0.00 59 1004.9
20260504080444 61 0 0.0 2.6 0.00 0.00 0.00 58 1005.1